STARLINK-31958, 59924

Orbit data source: Space-Track

STARLINK-31958, 59924 is a payload satellite owned by SpaceX/Seattle (US) in LEO that was launched on Sat, 01 Jun 2024 UTC via an FALCON 9 launch vehicle from the Air Force Eastern Test Range (AFETR). Payload-class satellites include a variety of spacecraft equipped with specific instruments for various scientific and technological missions. These include communications satellites like Starlink; space stations such as the ISS; scientific satellites like the Hubble; Earth observation satellites from companies like Planet Labs, Umbra, and HawkEye 360; GPS; miniature CubeSats for education and research; and military/defense satellites.

Loading next visibility...
Identifier
59924, 2024-106C
Orbit
LEO
Last TLE update
9 hours ago
Origin
Manufacturer
SpaceX/Seattle
Mission
Operational spacecraft
Bus & Motor
STARLINK V2M, Unknown motor
Mass
730 kg wet, ~700 kg dry
Launch date (UTC)
2024-06-01 (1 year ago)
Launch vehicle
FALCON 9
Launch site
Air Force Eastern Test Range (AFETR)
Object type
Payload
Rocket body
Debris
Shape & HBR
Unknown
Radar Cross Section
Large (>1 m²)

Expand to show TLE details & history

TLE from 9 hours ago
0 STARLINK-31958
1 59924U 24106C   25182.05491558 -.00000482  00000-0 -42737-5 0  9991
2 59924  43.0030 301.9412 0001638 273.9657  86.1012 15.40702518 62186
Epoch: 2025-07-01T01:19Z
TLE epoch observation values (Epoch: 2025-07-01T01:19:04.706Z)
Latitude
-0.00002°
Longitude
2.8157°
Altitude
443.733 km
Speed
7.648 km/s
True Right ascension
20h 07m 45s
True Declination
0° 00' 00"
Sunlit
Object was in full shadow at epoch
Visualization orbit readout
Latitude
-25.42657°
Longitude
-29.84519°
Altitude
449.54 km
Speed
7.644 km/s
Apparent Right ascension
14h 45m 07s
Apparent Declination
-50° 02' 24"
Sunlit
Object is in full shadow
Visualization observer readout
Local Sidereal Time
22:07:35
Azimuth
233.625° WSW
Elevation
-41.703°
Doppler factor
1
Orbital elements
Apogee altitude
447.108 km
Perigee altitude
444.873 km
Semi-major axis
6,824.127 km
Eccentricity
0.00016
Inclination
43.003°
RAAN
301.9412°
Arg. of periapsis
273.9657°
True anomaly
Unknown
Mean anomaly
86.1012°
Eccentric anomaly
Unknown
Mean motion
3.8501 °/min
Orbital period
93.5 mins
BSTAR
-0.0000042737
Loading maneuver chart data...
Loading SW <> Apogee altitude chart data...
Loading historical data...
Loading historical data...
Loading historical data...
Loading historical data...
Loading historical data...
Loading historical data...
Loading historical data...

STARLINK-31958 Visibility forecast

Observer location: undefined°, undefined°

Span
Click to sort rows by Start time (UTC) header in descending order
Start Az.
Max El. time (UTC)
Max El. Az.
Max El.
End time (UTC)
End Az.
4 mins2025-07-01 10:51:07.998Z182.687° SSW2025-07-01 10:53:07.998Z138.188° SSE19.194°2025-07-01 10:55:07.998Z100.086° ESE
5 mins2025-07-01 12:28:07.998Z250.105° W2025-07-01 12:30:07.998Z247.896° W42.187°2025-07-01 12:33:07.998Z72.086° E
5 mins2025-07-01 14:07:07.998Z294.814° NW2025-07-01 14:09:07.998Z17.252° NNE36.467°2025-07-01 14:12:07.998Z74.832° E
5 mins2025-07-01 15:45:07.998Z291.747° WNW2025-07-01 15:47:07.998Z17.303° NNE44.446°2025-07-01 15:50:07.998Z103.072° ESE
4 mins2025-07-01 17:23:07.998Z257.218° W2025-07-01 17:25:07.998Z207.547° SW23.6°2025-07-01 17:27:07.998Z162.951° S
|